Home   Weather   Amsterdam Island   Past weeks

Flag for French Southern Territories Past Weather in Amsterdam Island, French Southern Territories — Yesterday and Last 2 Weeks

Now
52 °F

Cool.


Feels Like: 46 °F
Forecast: 50 / 52 °F
Wind: 24 mph from West

Location: Martin De Vivies Ile Amsterdam

Current Time: Aug 31, 2016 at 1:03:03 PM

Latest Report: Aug 31, 2016 at 12:00 PM


Visibility: N/A

Pressure: 29.92 "Hg

Humidity: 57%

Dew Point: 38 °F

Location of Amsterdam IslandLocation

Past Weather in Amsterdam Island — Graph

°F

Amsterdam Island Temperature Yesterday

Maximum temperature yesterday: 55 °F (at 9:00 AM)
Minimum temperature yesterday: 47 °F (at 6:00 PM)
Average temperature yesterday: 52 °F

High & Low Weather Summary for the Past Weeks

 TemperatureHumidityPressure
High58 °F (Aug 20, 2:00 PM)95% (Aug 22, 3:00 AM)30.47 "Hg (Aug 22, 3:00 AM)
Low42 °F (Aug 23, 4:00 AM)50% (Aug 23, 10:00 AM)29.56 "Hg (Aug 30, 3:00 PM)
Average51 °F75%30.08 "Hg
* Reported Aug 19 2:00 PM — Aug 31 12:00 PM, Amsterdam Island, Weather by CustomWeather, © 2016

Note: Actual official high and low records may vary slightly from our data, if they occured in-between our weather recording intervals... More about our weather records

Advertising

Amsterdam Island Weather History for the Previous 24 Hours

Scroll right to see more
 ConditionsComfort  
Time TempWeatherWind HumidityBarometerVisibility
12:00 PM
Wed, Aug 31
52 °FCool.24 mph57%29.92 "HgN/A
11:00 AM46 °FCool.21 mph72%29.90 "HgN/A
10:00 AM51 °FCool.21 mph66%29.88 "HgN/A
9:00 AM49 °FCool.16 mph73%29.84 "HgN/A
8:00 AM48 °FCool.18 mph80%29.81 "HgN/A
7:00 AM46 °FCool.25 mph83%29.77 "HgN/A
6:00 AM48 °FCool.25 mph81%29.74 "HgN/A
5:00 AM49 °FCool.30 mph84%29.71 "HgN/A
4:00 AM51 °FCool.31 mph75%29.70 "HgN/A
3:00 AM50 °FCool.31 mph79%29.71 "HgN/A
2:00 AM49 °FCool.26 mph79%29.72 "HgN/A
1:00 AM50 °FCool.30 mph75%29.72 "HgN/A
12:00 AM51 °FCool.26 mph76%29.70 "HgN/A
11:00 PM
Tue, Aug 30
49 °FCool.23 mph79%29.71 "HgN/A
8:00 PM49 °FCool.28 mph79%29.67 "HgN/A
7:00 PM50 °FCool.28 mph78%29.66 "HgN/A
6:00 PM47 °FCool.23 mph81%29.65 "HgN/A
5:00 PM51 °FCool.23 mph76%29.62 "HgN/A
4:00 PM49 °FCool.25 mph86%29.60 "HgN/A
3:00 PM51 °FCool.30 mph87%29.56 "HgN/A
2:00 PM51 °FCool.25 mph90%29.58 "HgN/A
Weather by CustomWeather, © 2016

See weather overviewHow to use our weather pages